Regional Weather Roundup
Issued by NWS Green Bay, WI

Home | Current Version | Previous Version | Graphics & Text | Print | Product List | Glossary Off
Versions: 1 2 3 4 5 6 7 8 9 10 11 12 13 14 15 16 17 18 19 20 21 22 23 24 25 26 27 28 29 30 31 32 33 34 35 36 37 38 39 40 41 42 43 44 45 46 47 48 49 50

000
ASUS43 KGRB 301900
RWRGRB

NORTH-CENTRAL AND NORTHEAST WISCONSIN REGIONAL WEATHER ROUNDUP
NATIONAL WEATHER SERVICE GREEN BAY WI
200 PM CDT THU JUL 30 2015

WIZ005-009-010>012-018-019-302000-
NORTH CENTRAL WISCONSIN

CITY           SKY/WX    TMP DP  RH WIND       PRES   REMARKS
IRONWOOD       SUNNY     75  57  53 NW14G21   29.91S
MANITOWISH WTR NOT AVBL
ARBOR VITAE    NOT AVBL
EAGLE RIVER    NOT AVBL
LAND O LAKES   NOT AVBL
RHINELANDER    MOSUNNY   82  52  35 W14G23    29.98S
PHILLIPS       NOT AVBL
ANTIGO         NOT AVBL
TOMAHAWK       NOT AVBL
MERRILL        NOT AVBL
$$

WIZ013-073-302000-
NORTHEAST WISCONSIN

CITY           SKY/WX    TMP DP  RH WIND       PRES   REMARKS
IRON MOUNTAIN  MOSUNNY   83  49  30 MISG      29.91R
MARINETTE      MOSUNNY   82  52  34 NW6G21    29.89F
$$

WIZ017-030-035>037-045-302000-
CENTRAL WISCONSIN

CITY           SKY/WX    TMP DP  RH WIND       PRES   REMARKS
MEDFORD        NOT AVBL
WAUSAU         MOSUNNY   84  53  34 NW16G26   29.97S
MOSINEE        MOSUNNY   79  57  47 W14       30.01S
MARSHFIELD     PTSUNNY   83  54  36 NW15      30.01S
WISC RAPIDS    MOSUNNY   86  50  28 NW17G26   30.01F
STEVENS POINT  NOT AVBL
WAUPACA        NOT AVBL
SHAWANO        NOT AVBL
CLINTONVILLE   NOT AVBL
$$

WIZ038-039-048-051-302000-
FOX VALLEY

CITY           SKY/WX    TMP DP  RH WIND       PRES   REMARKS
NWS GREEN BAY  PTSUNNY   85  57  38 W23G31    29.94F
APPLETON       PTSUNNY   82  52  34 W20G25    29.98F
OSHKOSH        MOSUNNY   85  54  34 W17G30    29.97F
FOND DU LAC    MOSUNNY   87  55  33 NW24G30   29.99F
$$

WIZ022-050-052-302000-
EAST CENTRAL WISCONSIN

CITY           SKY/WX    TMP DP  RH WIND       PRES   REMARKS
STURGEON BAY   MOSUNNY   82  55  39 W17G23    29.94S
MANITOWOC      NOT AVBL
SHEBOYGAN      PTSUNNY   84  56  38 W15G24    29.97F
$$

LMZ563-521-522-541>543-302000-
LAKESHORE

STATION/POSITION TIME  TEMP    WIND        PRES    VSBY  WAVE
                       AIR SEA DIR/SP/G                  HT/PER
                 (UTC) (F)     (DEG/KT/KT) (MB)    (MI)  (FT/S)
SHEBOYGAN LKSHOR 1800   81     300/ 19/ 26 1015.1F
KEWAUNEE LKSHORE 1800   81     260/ 16/ 22 1013.2S
ALGOMA MARINA    1812          340/ 11/ 18   N/A
NORTHPORT PIER   1800   80     300/ 10/ 15 1011.9S
N MID LAKE BUOY  1750   71 68  240/ 12/ 14 1011.1F         3/ 5
S GREEN BAY BUOY 1800   72 66  270/ 12/ 16 1014.6
SISTER BAY LKSHO 1844   81     300/ 13/ 15   N/A
STURGEON BAY CG  1755   84     310/ 12     1012.4      6   1
CHAMBERS ISLAND  1800   79     250/  2/ 10 1011.9F
MENOMINEE LKSHOR 1800   82     290/ 14/ 23 1013.2S
$$



USA.gov is the U.S. government's official web portal to all federal, state and local government web resources and services.